22.2.2020 Tornio Ralli

Tulokset  Keskeyttäneet (52)  AT-pisteet (7)  Tilastot Lähtöön oikeutettujen lista CSV


 << EK1 EK3 >> Yleiskilpailun tulos
Tornio Ralli
22.2.2020
EK 2, LUOKKATULOKSET
R-Rallicup
Tornion Ralliharrastajat
Elijärvi
 
Luokka 1 , Historic gr2,4, a alle 1350 60-90 vm. 2wd , Lähti:2
EK2, 8.61km, nopein: 81.5km/h
SijNroNimiTulosEro
1111Jussi Lappalainen €6:20,4
2112Janne Solatie €7:04,744,3
Tulos EK 2 jälkeen
SijNroNimiTulosEro
1111Jussi Lappalainen €8:38,3
2112Janne Solatie €9:13,6 35,3

 
Luokka 3 , F, A, HR alle 1650 2wd , Lähti:14
EK2, 8.61km, nopein: 92.1km/h
SijNroNimiTulosEro
1121Mikko Kurkela €5:36,5
2120Juho Nykänen €5:38,52,0
3122Marko Mansikkamäki €5:41,75,2
4130Mikko Konola5:47,010,5
5124Mika Kaapu €5:47,811,3
6126Jani Kuivas €5:49,913,4
7133jani seppälä5:53,016,5
8125Sami Jokinen €5:55,719,2
9123Tomi Saari €5:56,720,2
10128Petri Koski5:57,420,9
11127Tommi Lämsä €5:58,522,0
12129Reino Karhu6:15,639,1
13131Timo Kukkohovi6:47,41:10,9
Tulos EK 2 jälkeen
SijNroNimiTulosEro
1121Mikko Kurkela €7:19,7
2120Juho Nykänen €7:24,5 4,8
3122Marko Mansikkamäki €7:26,1 6,4
4124Mika Kaapu €7:34,6 14,9
5130Mikko Konola7:35,1 15,4
6133jani seppälä7:40,4 20,7
7126Jani Kuivas €7:42,0 22,3
8127Tommi Lämsä €7:44,4 24,7
9125Sami Jokinen €7:44,6 24,9
10123Tomi Saari €7:49,1 29,4
11128Petri Koski7:49,9 30,2
12129Reino Karhu8:05,1 45,4
13131Timo Kukkohovi8:44,5 1:24,8


Keskeyttäneet: 132, Riku Petteri Koivula, 2A, Tekninen vika
 
Luokka 4 , F, A, HR alle 2100 2wd , Lähti:16
EK2, 8.61km, nopein: 89.2km/h
SijNroNimiTulosEro
1148Jussi Teppo5:47,3
2149Janne Peteri5:48,31,0
3143Lauri Hiltunen5:50,33,0
4136Esa Ketomäki €5:51,54,2
5134Vesa Pulkkinen €5:56,18,8
6138Tomi Riihimäki €6:05,217,9
7137Kimmo Tukia6:05,818,5
8145Heikki Tanninen6:10,823,5
9141Tomi Tauriainen6:11,424,1
10147Janne Hanhela6:13,426,1
11140Janne Valkama6:18,831,5
12135Jari Korhonen €15:47,310:00,0
13144Manu Lampela15:47,310:00,0
Tulos EK 2 jälkeen
SijNroNimiTulosEro
1148Jussi Teppo7:35,3
2149Janne Peteri7:36,0 0,7
3136Esa Ketomäki €7:39,3 4,0
4134Vesa Pulkkinen €7:41,5 6,2
5143Lauri Hiltunen7:44,4 9,1
6137Kimmo Tukia7:56,3 21,0
7138Tomi Riihimäki €7:58,6 23,3
8145Heikki Tanninen8:01,9 26,6
9141Tomi Tauriainen8:08,8 33,5
10147Janne Hanhela8:10,1 34,8
11140Janne Valkama8:12,2 36,9
12135Jari Korhonen €27:32,7 19:57,4
13144Manu Lampela27:32,7 19:57,4


Keskeyttäneet: 139, Hannu Blek, 2B, Tekninen vika  -   142, Mika Posti, 2A, Tekninen vika  -   146, Matias Salmela, 1B, Tekninen vika
 
Luokka 5 , F, A, HR yli 2100 2wd , Lähti:23
EK2, 8.61km, nopein: 90.2km/h
SijNroNimiTulosEro
1151Sami Ahonen €5:43,5
2169Mikko Hast5:45,11,6
3150Kari-Pekka Saari €5:46,93,4
4162Harri Kervinen5:47,84,3
5168Pauli Junttila5:49,56,0
6159Timo Hyyryläinen5:58,715,2
7161Jarmo Blinnikka5:59,516,0
8153Jani Rihu €6:02,318,8
9160Jarmo Hosionaho6:06,623,1
10172joni-petteri kaarlela6:07,924,4
11170Konsta Ollikainen6:10,927,4
12163Tuomo Palola6:11,728,2
13154Markus Mäkelä €6:12,228,7
14156Tero Pellinen €6:12,228,7
15171Jari Mällinen6:13,129,6
16165Hermanni Ylikärppä6:14,531,0
17157pasi hirvikoski €6:22,839,3
18167Urpo Kettunen6:25,241,7
19166Niko Pihlajaniemi6:27,343,8
20164Erkki Hyytinen6:33,750,2
21155Jirka Lund €7:11,21:27,7
Tulos EK 2 jälkeen
SijNroNimiTulosEro
1151Sami Ahonen €7:30,6
2162Harri Kervinen7:32,0 1,4
3169Mikko Hast7:36,9 6,3
4150Kari-Pekka Saari €7:41,4 10,8
5168Pauli Junttila7:45,0 14,4
6161Jarmo Blinnikka7:48,5 17,9
7159Timo Hyyryläinen7:49,5 18,9
8153Jani Rihu €7:54,4 23,8
9160Jarmo Hosionaho8:00,8 30,2
10172joni-petteri kaarlela8:02,3 31,7
11163Tuomo Palola8:06,2 35,6
12154Markus Mäkelä €8:10,7 40,1
13156Tero Pellinen €8:10,7 40,1
14170Konsta Ollikainen8:13,7 43,1
15171Jari Mällinen8:14,4 43,8
16165Hermanni Ylikärppä8:16,6 46,0
17157pasi hirvikoski €8:17,8 47,2
18166Niko Pihlajaniemi8:25,6 55,0
19167Urpo Kettunen8:26,1 55,5
20164Erkki Hyytinen8:27,6 57,0
21155Jirka Lund €9:18,6 1:48,0


Keskeyttäneet: 152, Jarkko Jokiperä €, 2A, Tekninen vika  -   158, Roni Slotte, 2A, Tekninen vika
 
Luokka 6 , Senior 50 v. cc vapaa 2wd , Lähti:15
EK2, 8.61km, nopein: 87.1km/h
SijNroNimiTulosEro
1173petteri rantanen €5:55,9
2174Pauli Sinkkonen €5:57,61,7
3175Markku Tuoriniemi €5:57,71,8
4186Heikki Kauppi6:01,45,5
5177Timo Ahonen €6:08,312,4
6187Heikki Hosionho6:16,520,6
7183Petri Poutanen6:17,922,0
8180Arto Viinikka €6:20,224,3
9185Tapio Alikoski6:24,628,7
10184Ilkka Alaoja6:33,938,0
11178jari muhonen €6:36,240,3
12182Heikki Siitari6:56,31:00,4
13179Eero Ojakoski €7:08,21:12,3
14181Erkki Lindholm7:14,11:18,2
Tulos EK 2 jälkeen
SijNroNimiTulosEro
1174Pauli Sinkkonen €7:48,4
2175Markku Tuoriniemi €7:48,5 0,1
3173petteri rantanen €7:52,8 4,4
4186Heikki Kauppi7:53,5 5,1
5177Timo Ahonen €8:06,9 18,5
6187Heikki Hosionho8:14,9 26,5
7180Arto Viinikka €8:18,8 30,4
8185Tapio Alikoski8:20,0 31,6
9183Petri Poutanen8:24,2 35,8
10184Ilkka Alaoja8:29,1 40,7
11178jari muhonen €8:41,3 52,9
12182Heikki Siitari8:57,9 1:09,5
13179Eero Ojakoski €9:16,5 1:28,1
14181Erkki Lindholm9:30,5*1:42,1


Keskeyttäneet: 176, Pasi Kämäräinen €, 2B, Tekninen vika
*AT-pisteet: 181, Erkki Lindholm, 1L, Vilppilähtö, 10,0
 
Luokka 7 , V-1600 alle 1650 gr1, N ja V1600 2wd , Lähti:17
EK2, 8.61km, nopein: 87.5km/h
SijNroNimiTulosEro
1204Ville-Pekka Hast5:54,2
24Joonas Tonteri €5:58,44,2
314Asko Laukkanen6:08,514,3
416Jani Ruuskanen6:08,714,5
53Janne Rissanen €6:13,519,3
612Lasse Sirviö6:15,921,7
76Timo Aspegren6:18,624,4
87Sami Turpeenoja6:21,227,0
911Pertti Kallio6:22,828,6
105Henry Roivainen6:26,031,8
1113Esa Ronkainen6:28,634,4
129Pulju Mika6:30,135,9
1310Juha Lindström6:31,637,4
141Niko Törmä €6:35,040,8
152Mika Ilomäki €6:37,843,6
1615Kari Nissilä6:43,449,2
178Markus Väätänen6:47,953,7
Tulos EK 2 jälkeen
SijNroNimiTulosEro
1204Ville-Pekka Hast7:39,3
24Joonas Tonteri €7:45,5 6,2
314Asko Laukkanen7:52,1 12,8
416Jani Ruuskanen7:57,1 17,8
512Lasse Sirviö8:03,8 24,5
63Janne Rissanen €8:07,8 28,5
76Timo Aspegren8:08,6 29,3
87Sami Turpeenoja8:12,4 33,1
911Pertti Kallio8:13,9 34,6
1013Esa Ronkainen8:17,2 37,9
115Henry Roivainen8:18,5 39,2
129Pulju Mika8:22,4 43,1
1310Juha Lindström8:26,1 46,8
141Niko Törmä €8:27,1 47,8
152Mika Ilomäki €8:33,4 54,1
1615Kari Nissilä8:38,9 59,6
178Markus Väätänen8:44,2 1:04,9

 
Luokka 8 , V-2000 alle 2050 gr1, N, V2000 2wd , Lähti:7
EK2, 8.61km, nopein: 86.4km/h
SijNroNimiTulosEro
119Kari Mutkala €5:58,7
217Jarno Pentinpuro €6:00,01,3
320Saku Stenberg6:02,84,1
424Mikko Salmela6:20,021,3
523Raimo Romppainen6:29,731,0
622Janne Kortelainen6:35,336,6
Tulos EK 2 jälkeen
SijNroNimiTulosEro
119Kari Mutkala €7:42,3
217Jarno Pentinpuro €7:49,3 7,0
320Saku Stenberg7:50,3 8,0
424Mikko Salmela8:10,1 27,8
522Janne Kortelainen8:26,4 44,1
623Raimo Romppainen8:31,1*48,8


Keskeyttäneet: 21, Leskelä Jouko, 2A, Tekninen vika
*AT-pisteet: 23, Raimo Romppainen, 1L, Vilppilähtö, 10,0
 
Luokka 9 , Nuoret V-1600 2wd , Lähti:11
EK2, 8.61km, nopein: 83.9km/h
SijNroNimiTulosEro
135Valtteri Koski6:09,3
225Tomi Tiilikainen €6:12,73,4
330Leevi Lassila6:16,47,1
432Veeti Pulkkinnen6:19,310,0
531Miro Sakko6:20,210,9
627Aatu hirvikoski €6:28,619,3
734Atte Kari6:35,326,0
826Nuutti Korhonen €6:46,236,9
933Joakim Goman6:50,040,7
1029Aapo Erkkilä6:54,745,4
Tulos EK 2 jälkeen
SijNroNimiTulosEro
125Tomi Tiilikainen €7:58,1
235Valtteri Koski7:58,6 0,5
331Miro Sakko8:07,6 9,5
430Leevi Lassila8:09,8 11,7
532Veeti Pulkkinnen8:14,2 16,1
627Aatu hirvikoski €8:29,5 31,4
734Atte Kari8:34,3 36,2
826Nuutti Korhonen €8:42,3 44,2
933Joakim Goman8:46,2 48,1
1029Aapo Erkkilä8:50,8 52,7


Keskeyttäneet: 28, Jesse Eteläniemi, 2B, Ulosajo
 
Luokka 11 , 4wd cc vapaa Kaikki ikäkaudet , Lähti:10
EK2, 8.61km, nopein: 96.3km/h
SijNroNimiTulosEro
142Tatu Soisalo €5:21,9
239Joni Tolonen €5:24,32,4
347Miikka Saari5:31,09,1
441sauli väisänen €5:32,410,5
549Kalle Viitanen5:34,612,7
648Timo Luoto5:35,113,2
743Vesa-Pekka Palokangas €5:38,716,8
840Petri Ylinen €5:58,736,8
945Ilkka Palomaa7:10,91:49,0
1046Jukka Lappalainen7:13,71:51,8
Tulos EK 2 jälkeen
SijNroNimiTulosEro
139Joni Tolonen €7:00,2
247Miikka Saari7:08,5 8,3
341sauli väisänen €7:12,1 11,9
442Tatu Soisalo €7:15,1*14,9
549Kalle Viitanen7:15,6 15,4
648Timo Luoto7:15,8 15,6
743Vesa-Pekka Palokangas €7:19,6 19,4
840Petri Ylinen €7:40,4 40,2
945Ilkka Palomaa8:57,7 1:57,5
1046Jukka Lappalainen8:58,9 1:58,7


*AT-pisteet: 42, Tatu Soisalo €, 1L, Vilppilähtö, 10,0  -   42, Tatu Soisalo €, 2L, Vilppilähtö, 10,0
 
Luokka 12 , 4 wd A, Fin-R cc vapaa Nuotti , Lähti:19
EK2, 8.61km, nopein: 104km/h
SijNroNimiTulosEro
159Anssi-Jukka Rytkönen4:58,1
262Mika Pyyny4:58,30,2
350Kai Hyttinen €4:59,61,5
465Ari-Pekka Koivisto5:06,38,2
551jukka olkoniemi5:07,69,5
667Risto Lokka5:11,513,4
757Vesa Luokkanen5:12,114,0
866Markku Viitanen5:12,514,4
963Juha Karilainen5:17,519,4
1056Jukka Ikonen5:18,920,8
1155Sami Mukkala5:20,622,5
1264Kai Penttilä5:20,822,7
1353Miikka Vuokila5:25,026,9
1461Sami Valme5:26,428,3
1552Yrjö Martti5:27,229,1
1660Markku Alasuutari5:34,336,2
1754Miikka Kaskinen5:44,346,2
1858Mikko Suvinen5:49,251,1
1968Kari Heinonen6:06,41:08,3
Tulos EK 2 jälkeen
SijNroNimiTulosEro
162Mika Pyyny6:29,1
250Kai Hyttinen €6:29,5 0,4
359Anssi-Jukka Rytkönen6:30,1 1,0
451jukka olkoniemi6:38,9 9,8
565Ari-Pekka Koivisto6:39,8 10,7
667Risto Lokka6:46,3 17,2
757Vesa Luokkanen6:46,9 17,8
866Markku Viitanen6:48,0 18,9
955Sami Mukkala6:52,9 23,8
1056Jukka Ikonen6:54,3 25,2
1163Juha Karilainen6:54,3 25,2
1253Miikka Vuokila6:57,6 28,5
1364Kai Penttilä7:01,8 32,7
1461Sami Valme7:02,4 33,3
1552Yrjö Martti7:05,9 36,8
1660Markku Alasuutari7:14,9 45,8
1754Miikka Kaskinen7:23,8 54,7
1858Mikko Suvinen7:26,4 57,3
1968Kari Heinonen7:48,0 1:18,9

 
Luokka 13 , R5, Lite-R cc vapaa Nuotti , Lähti:1
EK2, 8.61km, nopein: 96.9km/h
SijNroNimiTulosEro
169Jonna Olkoniemi5:19,9
Tulos EK 2 jälkeen
SijNroNimiTulosEro
169Jonna Olkoniemi6:53,9

 
Luokka 15 , F, A, HR yli 1650 2wd Nuotti , Lähti:20
EK2, 8.61km, nopein: 94.6km/h
SijNroNimiTulosEro
186Ville Hanhisuanto5:27,5
276Juho Pietikäinen €5:28,10,6
374Topi Vänttilä €5:28,40,9
480Juuso Vormisto €5:32,55,0
575Max Karhapää €5:35,88,3
677Henrik Salo €5:43,415,9
792Janne Seluska5:43,616,1
888Jari Kinnunen5:45,017,5
993Kalle Markkanen5:46,919,4
1084Jari Saarnio5:47,920,4
1183Raimo Tunkkari5:49,421,9
1290Jaakko hirvonsalo5:50,222,7
1382Jouni Moisala5:50,823,3
1489Sauli Tuomaala5:51,423,9
1579Jari Suontausta €5:55,327,8
1685Henri Hökkä6:05,037,5
1781Toni Piiroinen €6:19,251,7
1894Vesa Törmä6:32,61:05,1
1978Markku Hakkarainen €6:33,41:05,9
2087arto kylmäluoma6:34,31:06,8
Tulos EK 2 jälkeen
SijNroNimiTulosEro
186Ville Hanhisuanto7:08,3
274Topi Vänttilä €7:11,2 2,9
376Juho Pietikäinen €7:11,8 3,5
480Juuso Vormisto €7:16,3 8,0
575Max Karhapää €7:18,6 10,3
688Jari Kinnunen7:28,3 20,0
777Henrik Salo €7:29,2 20,9
892Janne Seluska7:29,3 21,0
984Jari Saarnio7:31,3 23,0
1093Kalle Markkanen7:32,3 24,0
1183Raimo Tunkkari7:38,1 29,8
1290Jaakko hirvonsalo7:39,1 30,8
1382Jouni Moisala7:42,3 34,0
1489Sauli Tuomaala7:42,9 34,6
1579Jari Suontausta €7:45,6 37,3
1685Henri Hökkä7:51,2 42,9
1781Toni Piiroinen €8:06,9 58,6
1887arto kylmäluoma8:24,5 1:16,2
1978Markku Hakkarainen €8:28,8 1:20,5
2094Vesa Törmä8:30,6 1:22,3

 
Luokka 16 , Historic cc vapaa 2wd Nuotti , Lähti:2
EK2, 8.61km, nopein: 84.8km/h
SijNroNimiTulosEro
196Osmo Polojärvi6:05,7
295Juhani Pelkonen6:31,225,5
Tulos EK 2 jälkeen
SijNroNimiTulosEro
196Osmo Polojärvi7:57,9
295Juhani Pelkonen8:31,8 33,9

 
Luokka 17 , BMW orginal 2wd , Lähti:9
EK2, 8.61km, nopein: 88.8km/h
SijNroNimiTulosEro
1100Sami Laurila5:49,1
2103Ilpo Laitinen5:55,56,4
399Jarno Saari €5:55,96,8
4105RIKU KOSKI5:59,210,1
598John Ruotsalainen €6:01,312,2
697Ville Pulkkinen €6:04,315,2
7101Jukka Anttila6:14,225,1
8104Pauli Mikkola6:29,640,5
9102Juha Näsi6:35,546,4
Tulos EK 2 jälkeen
SijNroNimiTulosEro
1100Sami Laurila7:37,9
2103Ilpo Laitinen7:45,8 7,9
3105RIKU KOSKI7:47,9 10,0
499Jarno Saari €7:50,6 12,7
598John Ruotsalainen €7:53,4 15,5
697Ville Pulkkinen €7:57,7 19,8
7101Jukka Anttila8:06,0 28,1
8104Pauli Mikkola8:22,3 44,4
9102Juha Näsi8:31,2 53,3

 
Luokka 20 , Proto cc vapaa 2wd turbot , Lähti:3
EK2, 8.61km, nopein: 87.5km/h
SijNroNimiTulosEro
1110Mika Runtti5:54,1
2108Jarno Puupponen €6:01,06,9
Tulos EK 2 jälkeen
SijNroNimiTulosEro
1110Mika Runtti7:42,6
2108Jarno Puupponen €7:51,5 8,9


Keskeyttäneet: 109, Kari Herronen €, 2B, Tekninen vika